Weather History for Parsons, KS

Change the Weather History Date:

Sunday, April 27, 2014

  Actual Average Record
Temperature  
Mean Temperature 73 °F -  
Max Temperature 84 °F 73 °F 87 °F (1951)
Min Temperature 62 °F 50 °F 30 °F (2005)
Cooling Degree Days 8    
Growing Degree Days 23 (Base 50)    
Moisture  
Dew Point 57 °F    
Average Humidity 62    
Maximum Humidity 84    
Minimum Humidity 22    
Precipitation  
Precipitation 0.18 in - - ()
Sea Level Pressure  
Sea Level Pressure 29.42 in    
Wind  
Wind Speed 13 mph (South)    
Max Wind Speed 25 mph    
Max Gust Speed 36 mph    
Visibility 9 miles    
Events Rain    
Averages and records for this station are not official NWS values.
T = Trace of Precipitation, MM = Missing Value Source: NWS Daily Summary

Daily Weather History Graph

Daily Weather History Graph

Search for Another Location

Airport:

Trip Planner

Search our weather history database for the weather conditions in past years. The results will help you decide how hot, cold, wet, or windy it might be!

Date:

Astronomy

Apr. 27, 2014 Rise Set
Actual Time 6:31 AM CDT 8:08 PM CDT
Civil Twilight 6:04 AM CDT 8:35 PM CDT
Nautical Twilight 5:30 AM CDT 9:09 PM CDT
Astronomical Twilight 4:55 AM CDT 9:44 PM CDT
Moon 5:30 AM CDT (4/27) 6:44 PM CDT (4/27)
Length of Visible Light 14h 31m
Length of Day
13h 36m
Waning Crescent, 3% of the Moon is Illuminated
Apr 27
Waning Crescent
Apr 29
New
May 6
First Quarter
May 14
Full
May 21
Last Quarter

Hourly Weather History & Observations

Time (CDT) Temp. Heat Index Dew Point Humidity Pressure Visibility Wind Dir Wind Speed Gust Speed Precip Events Conditions
12:52 AM 75.0 °F - 61.0 °F 62% 29.55 in 10.0 mi South 16.1 mph 25.3 mph N/A   Clear
1:52 AM 73.9 °F - 62.1 °F 66% 29.54 in 10.0 mi South 15.0 mph 23.0 mph N/A   Clear
2:52 AM 73.0 °F - 63.0 °F 71% 29.51 in 10.0 mi South 12.7 mph - N/A   Partly Cloudy
3:52 AM 73.0 °F - 63.0 °F 71% 29.50 in 10.0 mi South 10.4 mph 18.4 mph N/A   Mostly Cloudy
4:40 AM 73.0 °F - 64.0 °F 73% 29.53 in 10.0 mi South 6.9 mph - N/A   Overcast
4:52 AM 73.0 °F - 64.0 °F 73% 29.50 in 10.0 mi South 9.2 mph - N/A   Overcast
5:20 AM 73.0 °F - 63.0 °F 71% 29.52 in 10.0 mi South 13.8 mph 20.7 mph N/A   Overcast
5:52 AM 73.0 °F - 63.0 °F 71% 29.47 in 10.0 mi South 10.4 mph 19.6 mph N/A   Overcast
6:10 AM 73.0 °F - 63.0 °F 71% 29.49 in 10.0 mi SSE 11.5 mph 21.9 mph N/A   Overcast
6:52 AM 72.0 °F - 62.1 °F 71% 29.46 in 10.0 mi South 15.0 mph 26.5 mph N/A   Overcast
7:52 AM 72.0 °F - 61.0 °F 68% 29.44 in 10.0 mi SSE 12.7 mph 23.0 mph N/A   Overcast
8:27 AM 72.0 °F - 62.1 °F 71% 29.47 in 10.0 mi South 15.0 mph 27.6 mph N/A   Overcast
8:52 AM 72.0 °F - 62.1 °F 71% 29.44 in 10.0 mi SSE 12.7 mph 25.3 mph N/A   Overcast
9:25 AM 73.0 °F - 63.0 °F 71% 29.45 in 10.0 mi South 15.0 mph 25.3 mph N/A   Overcast
9:52 AM 73.0 °F - 63.0 °F 71% 29.42 in 10.0 mi South 13.8 mph 27.6 mph N/A   Overcast
10:16 AM 73.0 °F - 63.0 °F 71% 29.44 in 10.0 mi South 13.8 mph 27.6 mph 0.00 in   Overcast
10:31 AM 69.1 °F - 63.0 °F 81% 29.47 in 1.8 mi SSW 24.2 mph 35.7 mph 0.09 in Rain Rain
10:39 AM 64.0 °F - 57.0 °F 78% 29.49 in 3.0 mi SSW 16.1 mph 34.5 mph 0.13 in Rain Heavy Rain
10:47 AM 62.6 °F - 55.4 °F 77% 29.47 in 4.0 mi SSW 10.4 mph 24.2 mph 0.17 in Rain Rain
10:52 AM 64.0 °F - 57.0 °F 78% 29.44 in 6.0 mi South 8.1 mph - 0.17 in Rain Light Rain
11:52 AM 62.1 °F - 57.0 °F 84% 29.47 in 10.0 mi South 12.7 mph 23.0 mph 0.01 in Rain Light Rain
12:52 PM 66.0 °F - 60.1 °F 81% 29.40 in 10.0 mi South 10.4 mph 20.7 mph 0.00 in   Clear
1:52 PM 75.0 °F - 61.0 °F 62% 29.35 in 10.0 mi South 15.0 mph 25.3 mph N/A   Clear
2:52 PM 80.1 °F 81.1 °F 61.0 °F 52% 29.32 in 10.0 mi South 16.1 mph 25.3 mph N/A   Clear
3:52 PM 81.0 °F 81.9 °F 62.1 °F 52% 29.29 in 10.0 mi South 15.0 mph 27.6 mph N/A   Scattered Clouds
4:52 PM 84.0 °F - 48.0 °F 28% 29.27 in 10.0 mi SSW 25.3 mph 35.7 mph N/A   Scattered Clouds
5:52 PM 82.0 °F - 39.9 °F 22% 29.27 in 10.0 mi SW 24.2 mph 31.1 mph N/A   Clear
6:52 PM 79.0 °F - 37.0 °F 22% 29.31 in 10.0 mi SSW 13.8 mph 28.8 mph N/A   Clear
7:52 PM 73.9 °F - 39.0 °F 28% 29.31 in 10.0 mi South 8.1 mph - N/A   Clear
8:52 PM 69.1 °F - 41.0 °F 36% 29.31 in 10.0 mi South 5.8 mph - N/A   Clear
9:52 PM 69.1 °F - 39.9 °F 35% 29.33 in 10.0 mi SSE 8.1 mph - N/A   Overcast
10:52 PM 69.1 °F - 37.9 °F 32% 29.32 in 10.0 mi South 6.9 mph - N/A   Overcast